Weather History for Ft Lauderdale, FL

Change the Weather History Date:

Sunday, November 4, 2012

  Actual Average Record
Temperature  
Mean Temperature 73 °F 77 °F  
Max Temperature 81 °F 83 °F 89 °F (1984)
Min Temperature 65 °F 72 °F 47 °F (1966)
Degree Days  
Heating Degree Days 0 0  
Month to date heating degree days 0 0  
Since 1 July heating degree days 0 0  
Cooling Degree Days 8 12  
Month to date cooling degree days 27 51  
Year to date cooling degree days 4184 4245  
Growing Degree Days 22 (Base 50)    
Moisture  
Dew Point 62 °F    
Average Humidity 72    
Maximum Humidity 93    
Minimum Humidity 51    
Precipitation  
Precipitation 0.00 in 0.15 in 2.30 in (1941)
Month to date precipitation 0.00 0.64  
Year to date precipitation 59.29 57.12  
Snow  
Snow 0.00 in - - ()
Month to date snowfall 0.0  
Since 1 July snowfall 0.0  
Since 1 September snowfall 0.0  
Snow Depth 0.00 in    
Sea Level Pressure  
Sea Level Pressure 30.06 in    
Wind  
Wind Speed 4 mph (ENE)    
Max Wind Speed 12 mph    
Max Gust Speed 15 mph    
Visibility 10 miles    
Events      
T = Trace of Precipitation, MM = Missing Value Source: NWS Daily Summary

Daily Weather History Graph

Daily Weather History Graph

Search for Another Location

Airport:

Trip Planner

Search our weather history database for the weather conditions in past years. The results will help you decide how hot, cold, wet, or windy it might be!

Date:

Astronomy

Nov. 04, 2012 Rise Set
Actual Time 6:31 AM EST 5:36 PM EST
Civil Twilight 6:07 AM EST 6:00 PM EST
Nautical Twilight 5:40 AM EST 6:27 PM EST
Astronomical Twilight 5:13 AM EST 6:54 PM EST
Moon 10:17 PM EST (11/4) 11:08 AM EST (11/4)
Length of Visible Light 11h 52m
Length of Day
11h 04m
Waning Gibbous, 72% of the Moon is Illuminated
Nov 4
Waning Gibbous
Nov 6
Last Quarter
Nov 13
New
Nov 20
First Quarter
Nov 28
Full

Hourly Weather History & Observations

Time (EST) Temp. Heat Index Dew Point Humidity Pressure Visibility Wind Dir Wind Speed Gust Speed Precip Events Conditions
12:53 AM 68.0 °F - 62.1 °F 81% 30.10 in 10.0 mi Calm Calm - N/A   Clear
1:53 AM 68.0 °F - 62.1 °F 81% 30.09 in 10.0 mi NW 3.5 mph - N/A   Partly Cloudy
1:53 AM 66.9 °F - 61.0 °F 81% 30.08 in 10.0 mi Calm Calm - N/A   Partly Cloudy
2:53 AM 66.9 °F - 62.1 °F 84% 30.08 in 10.0 mi Calm Calm - N/A   Partly Cloudy
3:53 AM 66.9 °F - 62.1 °F 84% 30.07 in 10.0 mi Calm Calm - N/A   Partly Cloudy
4:53 AM 66.0 °F - 63.0 °F 90% 30.07 in 10.0 mi Calm Calm - N/A   Clear
5:53 AM 64.9 °F - 62.1 °F 90% 30.08 in 10.0 mi NNW 4.6 mph - N/A   Partly Cloudy
6:53 AM 64.9 °F - 59.0 °F 81% 30.10 in 10.0 mi NNW 3.5 mph - N/A   Partly Cloudy
7:53 AM 70.0 °F - 60.1 °F 71% 30.11 in 10.0 mi NNW 3.5 mph - N/A   Partly Cloudy
8:53 AM 73.0 °F - 62.1 °F 68% 30.12 in 10.0 mi NW 3.5 mph - N/A   Partly Cloudy
9:53 AM 77.0 °F - 63.0 °F 62% 30.11 in 10.0 mi North 3.5 mph - N/A   Partly Cloudy
10:53 AM 79.0 °F - 62.1 °F 56% 30.10 in 10.0 mi ESE 6.9 mph - N/A   Partly Cloudy
11:53 AM 79.0 °F - 61.0 °F 54% 30.08 in 10.0 mi ENE 5.8 mph - N/A   Scattered Clouds
12:53 PM 80.1 °F 81.2 °F 62.1 °F 54% 30.04 in 10.0 mi ESE 6.9 mph - N/A   Scattered Clouds
1:53 PM 80.1 °F 81.1 °F 61.0 °F 52% 30.03 in 10.0 mi ENE 10.4 mph - N/A   Scattered Clouds
2:53 PM 79.0 °F - 61.0 °F 54% 30.02 in 10.0 mi ESE 6.9 mph - N/A   Scattered Clouds
3:53 PM 78.1 °F - 62.1 °F 58% 30.02 in 10.0 mi East 5.8 mph - N/A   Scattered Clouds
4:53 PM 77.0 °F - 62.1 °F 60% 30.01 in 10.0 mi East 8.1 mph - N/A   Partly Cloudy
5:53 PM 73.9 °F - 62.1 °F 66% 30.01 in 10.0 mi SE 4.6 mph - N/A   Partly Cloudy
6:53 PM 73.0 °F - 62.1 °F 68% 30.02 in 10.0 mi SSE 3.5 mph - N/A   Partly Cloudy
7:53 PM 72.0 °F - 62.1 °F 71% 30.03 in 10.0 mi SSE 3.5 mph - N/A   Partly Cloudy
8:53 PM 71.1 °F - 63.0 °F 75% 30.04 in 10.0 mi Calm Calm - N/A   Partly Cloudy
9:53 PM 71.1 °F - 63.0 °F 75% 30.03 in 10.0 mi Calm Calm - N/A   Partly Cloudy
10:53 PM 69.1 °F - 63.0 °F 81% 30.03 in 10.0 mi SSW 3.5 mph - N/A   Partly Cloudy